EW8326 Weather Reports


Display with metric or nautical units.
time (UTC)temp
F
wind
direction
speed
MPH
gust
MPH
rain 1hr
in
rain 24hr
in
rain mn
in
humidity
%
barometer
mb
20260505223401 34 327 3.0 5.0 0.00 0.00 0.00 84 1006.4
20260505222502 33 140 3.0 4.0 0.00 0.00 0.00 84 1006.5
20260505215800 36 316 5.0 8.0 0.00 0.00 0.00 84 1006.3
20260505214901 36 336 4.0 5.0 0.00 0.00 0.00 84 1006.3
20260505213101 37 321 6.0 8.0 0.00 0.00 0.00 84 1006.3
20260505212200 37 333 6.0 8.0 0.00 0.00 0.00 84 1006.3
20260505211302 37 352 6.0 8.0 0.00 0.00 0.00 84 1006.3
20260505210400 37 322 5.0 8.0 0.00 0.00 0.00 84 1006.3
20260505205502 38 276 3.0 5.0 0.00 0.00 0.00 84 1006.3
20260505204600 38 299 3.0 6.0 0.00 0.00 0.00 84 1006.1
20260505202801 39 285 4.0 8.0 0.00 0.00 0.00 84 1006.1
20260505201901 39 292 4.0 8.0 0.00 0.00 0.00 84 1006.0
20260505201000 39 321 5.0 9.0 0.00 0.00 0.00 84 1005.9
20260505200100 40 321 4.0 7.0 0.00 0.00 0.00 84 1005.9
20260505194302 40 280 2.0 2.0 0.00 0.00 0.00 84 1005.8
20260505193400 41 284 3.0 6.0 0.00 0.00 0.00 84 1005.6
20260505192501 41 297 3.0 7.0 0.00 0.00 0.00 84 1005.6
20260505191602 42 293 7.0 12.0 0.00 0.00 0.00 84 1005.5
20260505190700 42 274 4.0 7.0 0.00 0.00 0.00 84 1005.5
20260505185801 43 323 5.0 8.0 0.00 0.00 0.00 84 1005.4
20260505184000 44 321 5.0 8.0 0.00 0.00 0.00 84 1005.2
20260505183102 45 338 5.0 11.0 0.00 0.00 0.00 84 1005.1
20260505182200 45 216 4.0 9.0 0.00 0.00 0.00 84 1005.0
20260505181301 45 335 5.0 7.0 0.00 0.00 0.00 84 1004.9
20260505180402 45 298 4.0 5.0 0.00 0.00 0.00 84 1005.0
20260505175500 45 340 4.0 7.0 0.00 0.00 0.00 84 1005.0
20260505174601 45 301 3.0 5.0 0.00 0.00 0.00 84 1004.9
20260505173700 45 337 3.0 5.0 0.00 0.01 0.00 84 1004.8
20260505172801 46 333 4.0 9.0 0.00 0.01 0.00 84 1004.9
20260505171901 46 317 6.0 9.0 0.00 0.01 0.00 84 1004.9
20260505171002 47 308 6.0 11.0 0.00 0.01 0.00 84 1005.0
20260505170101 48 332 6.0 10.0 0.00 0.01 0.00 84 1004.6
20260505165202 48 273 4.0 10.0 0.00 0.01 0.00 84 1004.8
20260505164301 48 315 4.0 8.0 0.00 0.01 0.00 84 1004.8
20260505163401 47 276 4.0 9.0 0.00 0.01 0.00 84 1004.8
20260505161600 47 304 6.0 8.0 0.00 0.01 0.00 84 1004.7
20260505160700 49 325 4.0 8.0 0.00 0.01 0.00 84 1004.7
20260505153100 50 311 7.0 10.0 0.00 0.01 0.00 84 1004.6
20260505152200 50 306 5.0 8.0 0.00 0.01 0.00 84 1004.7
20260505150400 49 263 5.0 10.0 0.00 0.01 0.00 84 1004.4
20260505124901 49 319 9.0 16.0 0.00 0.01 0.00 84 1004.6
20260505124000 49 340 7.0 11.0 0.00 0.01 0.00 84 1004.5
20260505123101 49 316 7.0 9.0 0.00 0.01 0.00 84 1004.6
20260505122200 49 305 7.0 13.0 0.00 0.01 0.00 84 1004.7
20260505121300 48 269 7.0 10.0 0.00 0.01 0.00 84 1004.5
20260505120400 49 233 6.0 7.0 0.00 0.01 0.00 84 1004.6
20260505115500 48 328 7.0 17.0 0.00 0.01 0.00 84 1004.5
20260505114602 48 344 9.0 17.0 0.00 0.01 0.00 84 1004.4
20260505113700 50 214 6.0 10.0 0.00 0.01 0.00 84 1004.5
20260505112800 48 290 7.0 17.0 0.00 0.01 0.00 84 1004.6
20260505111900 47 348 11.0 17.0 0.00 0.01 0.00 84 1004.7
20260505100700 47 284 5.0 9.0 0.00 0.01 0.00 84 1004.6
20260505095800 48 303 7.0 11.0 0.00 0.01 0.00 84 1004.5
20260505094901 47 249 6.0 11.0 0.00 0.01 0.00 84 1004.8
20260505094000 46 262 7.0 11.0 0.00 0.01 0.00 84 1004.6
20260505093100 47 288 4.0 7.0 0.00 0.01 0.00 84 1004.5
20260505092201 46 251 6.0 8.0 0.00 0.01 0.00 84 1004.5
20260505090400 45 339 6.0 10.0 0.00 0.01 0.00 84 1004.6
20260505085500 44 341 5.0 9.0 0.00 0.01 0.00 84 1004.7
20260505084602 43 295 8.0 17.0 0.00 0.01 0.00 84 1004.6
20260505083700 43 320 7.0 14.0 0.00 0.01 0.00 84 1004.5
20260505081900 42 310 6.0 9.0 0.00 0.01 0.00 84 1004.3
20260505081002 41 351 5.0 5.0 0.00 0.01 0.00 84 1004.6
20260505075201 41 318 5.0 9.0 0.00 0.01 0.00 84 1004.5
20260505074300 40 334 7.0 10.0 0.00 0.01 0.00 84 1004.3
20260505073400 39 345 9.0 15.0 0.00 0.01 0.00 84 1004.3
20260505072500 38 315 8.0 12.0 0.00 0.01 0.00 84 1004.3
20260505071600 38 332 11.0 15.0 0.00 0.01 0.00 84 1004.2
20260505070700 38 331 9.0 17.0 0.00 0.01 0.00 84 1004.1
20260505064900 37 324 7.0 9.0 0.00 0.01 0.00 84 1004.2
20260505064000 36 328 10.0 14.0 0.00 0.01 0.00 84 1004.0
20260505062200 35 313 8.0 11.0 0.00 0.01 0.00 84 1003.9
20260505061300 35 270 6.0 7.0 0.00 0.01 0.00 84 1004.0
20260505055502 35 353 10.0 17.0 0.00 0.01 0.00 84 1003.9
20260505054600 35 293 6.0 11.0 0.00 0.01 0.00 84 1003.9
20260505053700 34 259 9.0 13.0 0.00 0.01 0.00 84 1003.9
20260505052800 34 307 7.0 13.0 0.00 0.01 0.00 84 1003.9
20260505051901 33 303 8.0 12.0 0.00 0.01 0.00 84 1003.9
20260505051000 33 280 8.0 15.0 0.00 0.01 0.00 84 1003.8
20260505041600 32 331 5.0 7.0 0.00 0.01 0.00 84 1003.5
20260505040700 32 147 6.0 6.0 0.00 0.01 0.00 84 1003.6
20260505035800 32 341 6.0 7.0 0.00 0.01 0.00 84 1003.3
20260505034900 32 349 8.0 13.0 0.00 0.01 0.00 84 1003.5
20260505034000 32 323 5.0 8.0 0.00 0.01 0.00 84 1003.3
20260505033102 32 332 5.0 7.0 0.00 0.01 0.00 84 1003.1
20260505031301 32 311 2.0 5.0 0.00 0.01 0.00 84 1003.3
20260505030400 32 319 3.0 9.0 0.00 0.01 0.00 84 1003.1
20260505025500 32 242 2.0 6.0 0.00 0.01 0.00 84 1003.1
20260505024600 33 341 5.0 7.0 0.00 0.01 0.00 84 1003.0
20260505022800 33 220 2.0 4.0 0.00 0.01 0.00 84 1003.0
20260505021900 33 316 5.0 8.0 0.00 0.01 0.00 84 1003.1
20260505021000 33 220 7.0 12.0 0.00 0.01 0.00 84 1002.9
20260505020100 34 288 6.0 11.0 0.00 0.01 0.00 84 1002.9
20260505015201 34 313 8.0 11.0 0.00 0.01 0.00 84 1002.8
20260505014300 34 305 9.0 13.0 0.00 0.01 0.00 84 1002.6
20260505013401 34 312 9.0 15.0 0.00 0.01 0.00 84 1002.6
20260505011600 34 312 7.0 15.0 0.00 0.01 0.00 84 1002.4
20260505010702 34 236 9.0 15.0 0.00 0.01 0.00 84 1002.3
20260505005800 35 317 8.0 10.0 0.00 0.01 0.00 84 1002.3
20260505003100 35 305 6.0 10.0 0.00 0.01 0.00 84 1002.4
20260505001300 35 257 11.0 18.0 0.00 0.01 0.00 84 1002.3
20260505000400 35 281 10.0 13.0 0.00 0.01 0.00 84 1002.4
20260504235500 36 313 10.0 21.0 0.00 0.01 0.00 84 1002.2
20260504234600 36 333 11.0 17.0 0.00 0.01 0.00 84 1002.2
20260504233702 36 303 11.0 17.0 0.00 0.01 0.00 84 1002.2
20260504231000 36 233 9.0 15.0 0.00 0.01 0.00 84 1002.4
20260504230100 36 274 9.0 15.0 0.00 0.01 0.00 84 1002.3
20260504225200 37 336 10.0 14.0 0.00 0.01 0.00 84 1002.5
20260504224302 37 342 7.0 14.0 0.00 0.01 0.00 84 1002.2